Tracking 19854 objects as of 23-Sep-2019
HD Live streaming from Space Station
objects crossing your sky now

SL-24 DEB

Track SL-24 DEB now!
10-day predictions


NORAD ID: 40048
Int'l Code: 2014-033AQ
Perigee: 427.7 km
Apogee: 445.9 km
Inclination: 98.0 °
Period: 93.2 minutes
Semi major axis: 6807 km
RCS: Unknown
Launch date: June 19, 2014
Source: Commonwealth of Independent States (former USSR) (CIS)
Launch site: Orenburg, Russia (OREN)

Note: This is SATELLITE DEBRIS
aabbcc
Your satellite tracking list
Your tracking list is empty




NASA's NSSDC Master Catalog

Two Line Element Set (TLE):
1 40048U 14033AQ  19265.71705740  .00009476  00000-0  19853-3 0  9996
2 40048  98.0052 310.1883 0013360 175.3565 184.7808 15.45587190292410
Source of the keplerian elements: AFSPC